Back to catalog

STARLINK-3150

AliveCommunicationsVLEO
NORAD 49452·PAYLOAD·🇺🇸 United States

Launched Nov 13, 2021 from Cape Canaveral Space Force Station

Loading…

Next Passes (next 24 hours)

TLE

FreshSource: CelesTrak SupGP

Epoch: Sep 14, 2026, 14:01 UTC

1 49452C 21104AW  26257.58451389 -.00030100  00000+0 -96797-3 0  2570
2 49452  53.1579  79.3480 0001131  93.8326 251.6341 15.31715628    16

Track STARLINK-3150 in real time with AllMySat

Download on the App Store